[[{"header":{"parameterUnit":"m.s-1","parameterCategory":1,"la1":30.2991,"la2":30.254,"lo1":-89.0895,"lo2":-89.0444,"dy":0.0017,"dx":0.0017,"nx":28,"ny":28,"refTime":"2024-07-20T09:00:00:Z","depth":0,"parameterNumber":2,"parameterNumberName":"U-component_of_WINDS"},"data":[0,0,0,0,0,0,0,0,0,0,0,0,0,0,0,0,0,0,0,0,0,0,0,0,0,0,0,0,0,0,0,0,0,0,0,0,0,0,0,0,0,0,0,0,0,0,0,0,0,0,0,0,0,0,0,0,0,0,1.4855,1.4856,0,1.4897,1.4897,1.4898,1.4894,1.4893,1.4893,1.4892,1.4934,1.4936,1.4938,0,0,0,0,0,0,0,0,0,0,0,0,0,1.4769,1.4771,1.4855,1.4856,1.4856,1.4897,1.4897,1.4898,1.4894,1.4893,1.4893,1.4892,1.4934,1.4936,1.4938,0,0,0,0,0,0,0,0,0,0,0,0,0,1.4808,1.4772,1.4855,1.4859,1.486,1.4897,1.4897,1.4898,1.4894,1.4893,1.4892,1.4892,1.4933,1.4936,1.4938,1.4974,0,0,1.4946,1.4947,0,0,0,0,0,0,0,0,1.4806,1.4812,1.4858,1.4859,1.486,1.4889,1.4883,1.4923,1.4895,1.4881,1.4892,1.4891,1.492,1.4924,1.4934,1.4975,1.4977,1.4946,1.4948,1.4949,1.495,0,0,0,0,0,0,0,1.4804,1.481,1.4872,1.4859,1.486,1.4858,1.4863,1.489,1.4906,1.4882,1.4882,1.4887,1.4921,1.4931,1.4935,1.4978,1.4946,1.4949,1.495,1.4951,1.5046,1.5047,0,0,0,0,0,0,1.48,1.4808,1.487,1.4873,1.483,1.486,1.4865,1.4881,1.4905,1.4908,1.4888,1.4887,1.4927,1.4932,1.4936,1.4976,1.4949,1.4952,1.4953,1.5045,1.5047,1.5048,0,0,0,0,0,0,1.4798,1.4806,1.4869,1.484,1.4848,1.4863,1.488,1.4882,1.4893,1.491,1.4912,1.4896,1.4927,1.4933,1.4963,1.4978,1.4953,1.4955,1.5044,1.5046,1.5047,1.5058,0,0,0,0,0,0,1.4796,1.4805,1.482,1.4841,1.485,1.4896,1.4881,1.4884,1.4897,1.4896,1.4918,1.4921,1.4926,1.4959,1.4966,1.4981,1.4957,1.5043,1.5045,1.5047,1.5057,1.506,1.5063,0,0,0,0,0,1.4793,1.4822,1.482,1.4828,1.4868,1.4897,1.4902,1.4908,1.4899,1.4912,1.4922,1.492,1.4975,1.4963,1.497,1.4986,1.5042,1.5044,1.5047,1.5055,1.5059,1.5063,0,0,0,0,0,0,1.4803,1.4825,1.4823,1.486,1.4877,1.4896,1.4914,1.4913,1.4932,1.4931,1.4937,1.4942,1.4972,1.4982,1.4968,1.5019,1.5007,1.5011,1.5011,1.5015,1.5018,1.5015,1.4959,0,0,0,0,0,1.4809,1.4832,1.4849,1.488,1.4888,1.49,1.4913,1.4916,1.4933,1.494,1.4952,1.4969,1.4989,1.5003,1.5024,1.5058,1.5061,1.5072,1.5075,1.5078,1.508,1.5096,1.5101,1.5055,1.5055,1.5055,0,0,1.4823,1.4838,1.4852,1.4882,1.4896,1.4917,1.4906,1.493,1.4945,1.4944,1.4973,1.4982,1.5001,1.5033,1.5047,1.5042,1.5094,1.5081,1.5082,1.5084,1.5099,1.5103,1.5107,1.5056,1.5056,1.5056,0,0,1.4859,1.4873,1.4898,1.4911,1.4931,1.4937,1.4943,1.4963,1.4969,1.4998,1.4996,1.5014,1.5051,1.5063,1.5074,1.511,1.5108,1.5117,1.5132,1.5147,1.5151,1.5154,1.5165,1.5169,1.512,1.512,1.512,0,1.4873,1.4906,1.4912,1.4935,1.4947,1.4946,1.497,1.4982,1.5008,1.5015,1.5009,1.5052,1.5065,1.5098,1.5106,1.5117,1.5122,1.5114,1.515,1.5153,1.5156,1.5166,1.5171,1.5121,1.512,1.512,1.512,0,1.4921,1.4944,1.4962,1.4985,1.4999,1.5023,1.5031,1.5045,1.5046,1.5053,1.5081,1.5096,1.5117,1.5126,1.5128,1.5158,1.5154,1.5149,1.5137,1.5161,1.5171,1.5175,1.5122,1.5121,1.5121,1.5121,0,0,1.4965,1.4989,1.4995,1.5004,1.5024,1.5041,1.5064,1.5084,1.5095,1.5112,1.5129,1.5159,1.5153,1.5165,1.5168,1.5182,1.5206,1.5175,1.5175,1.5178,1.5238,1.524,1.5245,1.5205,1.5206,1.5206,1.5235,0,1.5001,1.5041,1.5045,1.508,1.5099,1.5097,1.5116,1.513,1.5136,1.5153,1.516,1.5179,1.5172,1.5179,1.5193,1.5201,1.5218,1.5199,1.522,1.5221,1.5214,1.525,1.5253,1.528,1.5239,1.524,1.5241,0,1.5048,1.5064,1.5101,1.5115,1.5123,1.5141,1.5158,1.5174,1.5189,1.5192,1.5205,1.5205,1.5227,1.5214,1.5243,1.5229,1.5238,1.5243,1.5244,1.5245,1.5231,1.525,1.5289,1.5292,1.5247,1.5246,1.5246,0,1.5072,1.5104,1.5129,1.5137,1.5155,1.5167,1.5175,1.5188,1.5199,1.5215,1.5221,1.5239,1.5248,1.5262,1.5266,1.5257,1.5293,1.5282,1.5295,1.5295,1.5303,1.5302,1.5341,1.5311,1.5311,1.5311,1.5311,0,1.511,1.5132,1.514,1.5156,1.5179,1.5183,1.5206,1.5214,1.5225,1.5241,1.524,1.5255,1.5261,1.5276,1.5279,1.5301,1.5306,1.5308,1.5308,1.5307,1.5307,1.5312,1.531,1.5312,1.5312,1.5311,1.5311,0,1.5142,1.5148,1.5175,1.5189,1.5193,1.521,1.5221,1.5235,1.5241,1.526,1.5265,1.5274,1.5291,1.5297,1.5319,1.5321,1.5345,1.5345,1.534,1.534,1.5352,1.535,1.5396,1.5401,1.5368,1.5369,1.5369,0,1.5165,1.5181,1.5196,1.5206,1.5214,1.5231,1.5242,1.5246,1.5257,1.5273,1.5284,1.5301,1.5315,1.5343,1.5351,1.5366,1.5365,1.538,1.5368,1.5365,1.5363,1.5361,1.5362,1.5382,1.5383,1.5383,1.5383,0,1.5204,1.5206,1.5221,1.5237,1.5249,1.5262,1.5274,1.5282,1.5288,1.53,1.5317,1.5328,1.5349,1.5365,1.538,1.5388,1.5386,1.5387,1.539,1.5389,1.5384,1.5384,1.5344,1.5386,1.5385,1.5385,1.5385,1.5385,1.523,1.5244,1.5255,1.5272,1.5281,1.5292,1.5305,1.5311,1.5326,1.5342,1.5344,1.5362,1.5373,1.5394,1.5402,1.5415,1.5411,1.5417,1.5418,1.5419,1.5419,1.5383,1.5418,1.5418,1.5418,1.5418,1.5418,0,1.5267,1.5274,1.5289,1.5305,1.5317,1.5314,1.5327,1.5337,1.5353,1.5364,1.5377,1.5395,1.541,1.5419,1.5433,1.5442,1.5442,1.5446,1.5445,1.5446,1.5423,1.5417,1.5446,1.5446,1.5446,1.5446,1.5446,1.5446,1.5288,1.5309,1.5312,1.5337,1.5344,1.5361,1.5368,1.5377,1.5385,1.5406,1.5418,1.5423,1.5432,1.5447,1.5461,1.5462,1.5467,1.5472,1.5473,1.5451,1.5448,1.5445,1.544,1.5473,1.5473,1.5495,1.5495,1.5495]},{"header":{"parameterUnit":"m.s-1","parameterCategory":1,"la1":30.2991,"la2":30.254,"lo1":-89.0895,"lo2":-89.0444,"dy":0.0017,"dx":0.0017,"nx":28,"ny":28,"refTime":"2024-07-20T09:00:00:Z","depth":0,"parameterNumber":3,"parameterNumberName":"V-component_of_WINDS"},"data":[0,0,0,0,0,0,0,0,0,0,0,0,0,0,0,0,0,0,0,0,0,0,0,0,0,0,0,0,0,0,0,0,0,0,0,0,0,0,0,0,0,0,0,0,0,0,0,0,0,0,0,0,0,0,0,0,0,0,2.963,2.9631,0,2.9701,2.9702,2.9703,2.9658,2.9656,2.9654,2.9652,2.9722,2.9726,2.973,0,0,0,0,0,0,0,0,0,0,0,0,0,2.9449,2.9453,2.963,2.9631,2.9632,2.9701,2.9702,2.9703,2.9658,2.9656,2.9653,2.9651,2.9721,2.9726,2.973,0,0,0,0,0,0,0,0,0,0,0,0,0,2.9525,2.9454,2.963,2.9617,2.9617,2.9701,2.9702,2.9704,2.9659,2.9656,2.9652,2.9649,2.972,2.9725,2.9731,2.983,0,0,2.9749,2.9751,0,0,0,0,0,0,0,0,2.9521,2.9531,2.9618,2.9618,2.9618,2.9668,2.9665,2.9746,2.966,2.9643,2.9652,2.9648,2.9707,2.9713,2.9733,2.9833,2.9836,2.9749,2.9753,2.9755,2.9757,0,0,0,0,0,0,0,2.9515,2.9528,2.9658,2.962,2.962,2.9607,2.9614,2.968,2.9691,2.9644,2.9641,2.965,2.9706,2.9728,2.9735,2.9837,2.9749,2.9754,2.9758,2.976,3.0018,3.0022,0,0,0,0,0,0,2.9512,2.9524,2.9656,2.966,2.9561,2.9613,2.9621,2.9655,2.9691,2.9693,2.9653,2.9648,2.972,2.9728,2.9737,2.9853,2.9755,2.976,2.9764,3.0015,3.0019,3.0023,0,0,0,0,0,0,2.9508,2.9524,2.9653,2.9591,2.9607,2.9619,2.9658,2.9658,2.968,2.9697,2.9699,2.9674,2.9718,2.9729,2.9807,2.9855,2.9763,2.9768,3.0011,3.0016,3.0021,3.0088,0,0,0,0,0,0,2.9503,2.9523,2.9562,2.9593,2.961,2.9723,2.9661,2.9662,2.9691,2.9685,2.9717,2.972,2.9716,2.9798,2.9812,2.9861,2.9773,3.0007,3.0013,3.0019,3.0081,3.0094,3.0106,0,0,0,0,0,2.9497,2.9578,2.9564,2.958,2.966,2.9726,2.9736,2.9731,2.9695,2.9733,2.9743,2.9719,2.9848,2.9807,2.9822,2.9874,3.0004,3.0011,3.0019,3.0076,3.0092,3.0105,0,0,0,0,0,0,2.9552,2.9582,2.9567,2.9661,2.9691,2.9718,2.9766,2.9748,2.9789,2.9782,2.9773,2.978,2.9861,2.9875,2.9829,2.9969,2.992,2.9931,2.9957,2.9973,2.9985,2.9979,2.9778,0,0,0,0,0,2.9576,2.9628,2.9651,2.9731,2.9747,2.9754,2.9783,2.9776,2.9807,2.9819,2.9836,2.9866,2.9912,2.9944,2.9988,3.0083,3.0088,3.0126,3.0138,3.0148,3.0157,3.0206,3.0222,3.0048,3.0048,3.0048,0,0,2.9624,2.9647,2.968,2.9743,2.9765,2.9818,2.9765,2.9824,2.9863,2.9828,2.9902,2.9915,2.9947,3.0033,3.0072,3.0047,3.0206,3.0158,3.0166,3.0169,3.0215,3.0232,3.0246,3.0053,3.0052,3.0051,0,0,2.9739,2.9762,2.9831,2.9854,2.9889,2.9893,2.9909,2.9939,2.9946,3.002,2.9995,3.0039,3.0121,3.0145,3.0167,3.0288,3.0266,3.0303,3.0367,3.0414,3.0428,3.044,3.0481,3.0496,3.0312,3.0313,3.0313,0,2.9795,2.9874,2.9868,2.9928,2.9955,2.9926,2.9994,3.0017,3.0064,3.0083,3.0055,3.0155,3.0175,3.0265,3.0294,3.0314,3.0331,3.0299,3.0426,3.0438,3.045,3.0488,3.0504,3.0317,3.0316,3.0316,3.0315,0,2.9939,2.9995,3.0046,3.0092,3.0125,3.0189,3.019,3.0224,3.0214,3.022,3.0294,3.0317,3.0364,3.0385,3.0376,3.0473,3.0456,3.0428,3.0377,3.047,3.0507,3.0522,3.0323,3.0321,3.032,3.0319,0,0,3.0093,3.0133,3.0152,3.0171,3.0207,3.0249,3.031,3.0356,3.0384,3.0417,3.0467,3.0536,3.0509,3.0534,3.0527,3.0569,3.066,3.0535,3.0535,3.0556,3.0765,3.0786,3.0803,3.0646,3.0649,3.0651,3.0762,0,3.0208,3.0316,3.031,3.0411,3.046,3.0432,3.0485,3.0511,3.0518,3.056,3.0567,3.0615,3.0577,3.0592,3.0632,3.0641,3.0702,3.0633,3.069,3.0692,3.0681,3.0822,3.0845,3.0948,3.0776,3.0779,3.0781,0,3.0357,3.0395,3.05,3.0526,3.0546,3.0594,3.0635,3.0676,3.0704,3.0706,3.0734,3.0719,3.0778,3.0727,3.0808,3.0761,3.0783,3.0791,3.0795,3.0799,3.0741,3.0829,3.0982,3.0996,3.0803,3.0801,3.08,0,3.0456,3.0533,3.0605,3.0623,3.0655,3.0689,3.0704,3.0729,3.0756,3.0791,3.0809,3.085,3.0873,3.0904,3.09,3.0864,3.0981,3.093,3.0983,3.0983,3.1008,3.1006,3.1165,3.1026,3.1025,3.1025,3.1025,0,3.0584,3.0649,3.0649,3.0694,3.0764,3.0757,3.0827,3.0838,3.086,3.0904,3.0883,3.0925,3.0918,3.0959,3.0956,3.1022,3.1033,3.1034,3.1032,3.1035,3.1035,3.1049,3.1041,3.1029,3.1028,3.1027,3.1027,0,3.0706,3.0709,3.0785,3.0809,3.0817,3.0867,3.0887,3.0928,3.0932,3.0988,3.1001,3.1008,3.1055,3.1054,3.1108,3.1106,3.1186,3.1177,3.1177,3.1174,3.1226,3.122,3.1398,3.142,3.1268,3.1269,3.1271,0,3.0787,3.0836,3.0865,3.0893,3.091,3.0957,3.0984,3.0978,3.1007,3.1041,3.1077,3.1123,3.1158,3.1235,3.1243,3.1284,3.1274,3.1334,3.128,3.1281,3.1273,3.1269,3.1273,3.1344,3.1346,3.1347,3.1348,0,3.0931,3.0929,3.097,3.1011,3.1045,3.1077,3.1106,3.113,3.1126,3.116,3.1208,3.1236,3.129,3.1334,3.1373,3.1386,3.1366,3.1365,3.1379,3.1382,3.1379,3.1379,3.1203,3.1361,3.1359,3.1359,3.1358,3.1357,3.1033,3.1075,3.1101,3.1146,3.1167,3.1195,3.1233,3.1242,3.1283,3.1327,3.132,3.1373,3.1397,3.1447,3.1463,3.1503,3.1482,3.1503,3.1508,3.1513,3.1518,3.1374,3.1511,3.151,3.151,3.151,3.1509,0,3.1174,3.1189,3.1231,3.1272,3.1307,3.1286,3.1316,3.1347,3.1394,3.1419,3.1454,3.1508,3.155,3.1562,3.1602,3.1631,3.1623,3.1642,3.1639,3.1642,3.1535,3.1518,3.1648,3.1648,3.1648,3.1648,3.1648,3.1648,3.1251,3.1319,3.132,3.1397,3.1411,3.1463,3.1482,3.1506,3.1526,3.1587,3.1622,3.1629,3.1648,3.1689,3.1726,3.1728,3.1743,3.1766,3.1764,3.1664,3.165,3.1637,3.162,3.1769,3.177,3.1867,3.1868,3.1868]}]]